TARGET1 EFLP-EFKU

Flight info

Callsign TARGET1
Flight time 1h 18m
Altitude 20000
Route DCT N27C
Aircraft LJ35/M-SGHRWXY/SB1

Departure

Time 2026-04-20 13:43
Airport Lappeenranta Airport (EFLP)

Arrival

Time 2026-04-20 15:02
Airport Kuopio Airport (EFKU)
Time Latitude Longitude Altitude Speed Heading
2026-04-20 13:35 61.04420 28.15487 353 ft 0 kts 120°
2026-04-20 13:39 61.04415 28.15508 350 ft 4 kts 120°
2026-04-20 13:39 61.04414 28.15511 350 ft 0 kts 120°
2026-04-20 13:41 61.04413 28.15514 349 ft 1 kts 118°
2026-04-20 13:41 61.04414 28.15535 349 ft 4 kts 31°
2026-04-20 13:41 61.04486 28.15477 348 ft 18 kts 342°
2026-04-20 13:42 61.04623 28.15414 350 ft 22 kts 25°
2026-04-20 13:42 61.04797 28.16186 354 ft 30 kts 65°
2026-04-20 13:42 61.04862 28.16459 352 ft 9 kts 21°
2026-04-20 13:43 61.04869 28.16423 356 ft 0 kts 244°
2026-04-20 13:43 61.04689 28.15554 351 ft 152 kts 247°
2026-04-20 13:43 61.04082 28.12923 1295 ft 248 kts 247°
2026-04-20 13:43 61.03844 28.09883 3286 ft 170 kts 285°
2026-04-20 13:44 61.04353 28.07852 4485 ft 179 kts 321°
2026-04-20 13:44 61.05558 28.06742 5674 ft 206 kts 358°
2026-04-20 13:44 61.06997 28.07290 7178 ft 218 kts 23°
2026-04-20 13:44 61.08438 28.08546 8823 ft 231 kts 24°
2026-04-20 13:45 61.09939 28.09860 10582 ft 238 kts 25°
2026-04-20 13:45 61.11472 28.11204 12322 ft 240 kts 25°
2026-04-20 13:45 61.13018 28.12548 14160 ft 240 kts 25°
2026-04-20 13:45 61.14554 28.13863 15868 ft 238 kts 25°
2026-04-20 13:46 61.16076 28.15135 17620 ft 235 kts 25°
2026-04-20 13:46 61.17565 28.16343 19309 ft 231 kts 25°
2026-04-20 13:46 61.19061 28.17521 20482 ft 230 kts 25°
2026-04-20 13:46 61.20585 28.18738 20341 ft 232 kts 26°
2026-04-20 13:47 61.22058 28.20058 20367 ft 235 kts 27°
2026-04-20 13:47 61.23651 28.21253 20342 ft 253 kts 21°
2026-04-20 13:47 61.25424 28.22007 20336 ft 265 kts 13°
2026-04-20 13:47 61.27267 28.22477 20326 ft 267 kts 12°
2026-04-20 13:48 61.29108 28.23029 20319 ft 267 kts 14°
2026-04-20 13:48 61.30942 28.23684 20317 ft 268 kts 15°
2026-04-20 13:48 61.32781 28.24334 20316 ft 269 kts 14°
2026-04-20 13:48 61.34603 28.24949 20320 ft 269 kts 14°
2026-04-20 13:49 61.36453 28.25571 20321 ft 269 kts 14°
2026-04-20 13:49 61.38303 28.26202 20320 ft 270 kts 14°
2026-04-20 13:49 61.40156 28.26836 20322 ft 270 kts 14°
2026-04-20 13:49 61.42010 28.27474 20308 ft 270 kts 14°
2026-04-20 13:50 61.43863 28.28106 20309 ft 270 kts 14°
2026-04-20 13:50 61.45717 28.28735 20310 ft 271 kts 14°
2026-04-20 13:50 61.47777 28.29455 20314 ft 332 kts 13°
2026-04-20 13:50 61.50263 28.30251 20319 ft 390 kts 11°
2026-04-20 13:51 61.53105 28.31092 20317 ft 433 kts 10°
2026-04-20 13:51 61.55958 28.31971 20321 ft 397 kts 11°
2026-04-20 13:51 61.58560 28.32895 20313 ft 375 kts 13°
2026-04-20 13:51 61.61282 28.33967 20306 ft 420 kts 13°
2026-04-20 13:52 61.64182 28.34987 20314 ft 405 kts 11°
2026-04-20 13:52 61.66811 28.35819 20298 ft 362 kts 12°
2026-04-20 13:52 61.69180 28.36714 20307 ft 330 kts 14°
2026-04-20 13:52 61.71351 28.37599 20310 ft 306 kts 14°
2026-04-20 13:53 61.73387 28.38334 20306 ft 291 kts 13°
2026-04-20 13:53 61.75585 28.39067 20308 ft 351 kts 12°
2026-04-20 13:53 61.78153 28.39875 20313 ft 404 kts 11°
2026-04-20 13:53 61.81076 28.40762 20310 ft 436 kts 10°
2026-04-20 13:54 61.83970 28.41657 20310 ft 405 kts 11°
2026-04-20 13:54 61.86665 28.42599 20310 ft 382 kts 12°
2026-04-20 13:54 61.89224 28.43591 20297 ft 367 kts 14°
2026-04-20 13:54 61.91697 28.44640 20297 ft 360 kts 14°
2026-04-20 13:55 61.94162 28.45630 20297 ft 362 kts 13°
2026-04-20 13:55 61.96649 28.46456 20296 ft 363 kts 12°
2026-04-20 13:55 61.99146 28.47271 20299 ft 363 kts 12°
2026-04-20 13:55 62.01599 28.48155 20296 ft 363 kts 13°
2026-04-20 13:56 62.04109 28.49086 20295 ft 371 kts 12°
2026-04-20 13:56 62.06690 28.49991 20299 ft 381 kts 11°
2026-04-20 13:56 62.09339 28.50874 20299 ft 388 kts 12°
2026-04-20 13:56 62.11833 28.51759 20298 ft 393 kts 11°
2026-04-20 13:57 62.14574 28.52751 20299 ft 396 kts 12°
2026-04-20 13:57 62.17301 28.53734 20302 ft 399 kts 11°
2026-04-20 13:57 62.19117 28.54356 20304 ft 400 kts 11°
2026-04-20 13:57 62.21865 28.55336 20309 ft 401 kts 12°
2026-04-20 13:58 62.24619 28.56352 20308 ft 402 kts 12°
2026-04-20 13:58 62.27385 28.57362 20309 ft 403 kts 12°
2026-04-20 13:58 62.30152 28.58331 20309 ft 403 kts 11°
2026-04-20 13:58 62.33817 28.59669 20309 ft 403 kts 12°
2026-04-20 13:59 62.36578 28.60701 20309 ft 403 kts 12°
2026-04-20 13:59 62.38451 28.61392 20311 ft 403 kts 12°
2026-04-20 13:59 62.41181 28.62375 20313 ft 403 kts 11°
2026-04-20 13:59 62.43953 28.63338 20309 ft 403 kts 11°
2026-04-20 14:00 62.46722 28.64349 20313 ft 403 kts 11°
2026-04-20 14:00 62.49485 28.65350 20315 ft 403 kts 11°
2026-04-20 14:00 62.52245 28.66411 20314 ft 403 kts 12°
2026-04-20 14:00 62.55024 28.67478 20313 ft 408 kts 11°
2026-04-20 14:01 62.57845 28.68459 20307 ft 412 kts 11°
2026-04-20 14:01 62.60681 28.69456 20309 ft 415 kts 11°
2026-04-20 14:01 62.63539 28.70494 20309 ft 416 kts 11°
2026-04-20 14:01 62.66395 28.71544 20309 ft 417 kts 11°
2026-04-20 14:02 62.69223 28.72591 20308 ft 418 kts 11°
2026-04-20 14:02 62.72094 28.73656 20310 ft 418 kts 11°
2026-04-20 14:02 62.74964 28.74719 20310 ft 419 kts 11°
2026-04-20 14:02 62.77836 28.75775 20312 ft 419 kts 11°
2026-04-20 14:03 62.80710 28.76837 20309 ft 419 kts 11°
2026-04-20 14:03 62.83582 28.77900 20309 ft 419 kts 11°
2026-04-20 14:03 62.86462 28.78984 20306 ft 419 kts 11°
2026-04-20 14:03 62.89332 28.80078 20289 ft 419 kts 11°
2026-04-20 14:04 62.92198 28.81218 20304 ft 419 kts 11°
2026-04-20 14:04 62.95069 28.82338 20304 ft 419 kts 10°
2026-04-20 14:04 62.97904 28.83428 20306 ft 419 kts 10°
2026-04-20 14:04 63.00772 28.84519 20304 ft 419 kts 10°
2026-04-20 14:05 63.03644 28.85614 20302 ft 419 kts 10°
2026-04-20 14:05 63.06516 28.86725 20301 ft 419 kts 10°
2026-04-20 14:05 63.09391 28.87784 20319 ft 419 kts
2026-04-20 14:05 63.12311 28.88149 20327 ft 421 kts
2026-04-20 14:06 63.15241 28.88035 20315 ft 422 kts 359°
2026-04-20 14:06 63.18172 28.88193 20246 ft 421 kts
2026-04-20 14:06 63.21033 28.89447 20268 ft 418 kts 14°
2026-04-20 14:06 63.23860 28.90969 20313 ft 418 kts 12°
2026-04-20 14:07 63.26728 28.92177 20310 ft 420 kts 10°
2026-04-20 14:07 63.29613 28.93197 20316 ft 420 kts
2026-04-20 14:07 63.32495 28.93117 20340 ft 424 kts 354°
2026-04-20 14:07 63.35392 28.91812 20303 ft 426 kts 348°
2026-04-20 14:08 63.38367 28.91083 20246 ft 423 kts 359°
2026-04-20 14:08 63.41257 28.91293 20285 ft 420 kts
2026-04-20 14:08 63.44165 28.91876 20300 ft 420 kts
2026-04-20 14:08 63.47069 28.92597 20305 ft 419 kts
2026-04-20 14:09 63.49964 28.93378 20302 ft 419 kts
2026-04-20 14:09 63.52857 28.94187 20302 ft 419 kts
2026-04-20 14:09 63.55749 28.95017 20303 ft 419 kts
2026-04-20 14:09 63.58641 28.95855 20300 ft 419 kts
2026-04-20 14:10 63.61534 28.96697 20300 ft 419 kts
2026-04-20 14:10 63.64428 28.97542 20301 ft 419 kts
2026-04-20 14:10 63.67310 28.98464 20303 ft 419 kts
2026-04-20 14:10 63.70193 28.99419 20303 ft 419 kts
2026-04-20 14:11 63.73042 29.00350 20303 ft 419 kts
2026-04-20 14:11 63.75931 29.01275 20300 ft 419 kts
2026-04-20 14:11 63.78820 29.02220 20301 ft 419 kts
2026-04-20 14:11 63.81706 29.03193 20304 ft 420 kts
2026-04-20 14:12 63.84595 29.04182 20303 ft 420 kts
2026-04-20 14:12 63.87468 29.05168 20302 ft 420 kts
2026-04-20 14:12 63.90377 29.06154 20302 ft 420 kts
2026-04-20 14:12 63.93277 29.07135 20302 ft 420 kts
2026-04-20 14:13 63.96158 29.08116 20303 ft 420 kts
2026-04-20 14:13 63.99051 29.09123 20300 ft 421 kts
2026-04-20 14:13 64.01946 29.10145 20301 ft 420 kts
2026-04-20 14:13 64.04834 29.11166 20302 ft 420 kts
2026-04-20 14:14 64.07684 29.12196 20302 ft 420 kts
2026-04-20 14:14 64.10565 29.13233 20301 ft 420 kts
2026-04-20 14:14 64.13463 29.14283 20298 ft 420 kts
2026-04-20 14:14 64.16349 29.15328 20297 ft 420 kts
2026-04-20 14:15 64.19229 29.16376 20297 ft 420 kts
2026-04-20 14:15 64.22114 29.17429 20299 ft 420 kts
2026-04-20 14:15 64.25001 29.18503 20300 ft 420 kts
2026-04-20 14:15 64.27871 29.19747 20306 ft 420 kts 12°
2026-04-20 14:16 64.30684 29.21229 20294 ft 421 kts 15°
2026-04-20 14:16 64.33351 29.24016 20277 ft 423 kts 29°
2026-04-20 14:16 64.35614 29.28373 20279 ft 427 kts 44°
2026-04-20 14:16 64.37326 29.34000 20272 ft 433 kts 58°
2026-04-20 14:17 64.38379 29.40556 20273 ft 439 kts 72°
2026-04-20 14:17 64.38267 29.47573 20564 ft 449 kts 108°
2026-04-20 14:17 64.36229 29.52901 21338 ft 452 kts 141°
2026-04-20 14:17 64.33384 29.56276 21110 ft 468 kts 156°
2026-04-20 14:18 64.30183 29.58057 20896 ft 479 kts 171°
2026-04-20 14:18 64.26875 29.58156 20684 ft 486 kts 183°
2026-04-20 14:18 64.23512 29.57180 20553 ft 489 kts 189°
2026-04-20 14:18 64.20171 29.55704 20426 ft 490 kts 192°
2026-04-20 14:19 64.16836 29.54006 20309 ft 491 kts 193°
2026-04-20 14:19 64.13512 29.52219 20311 ft 489 kts 193°
2026-04-20 14:19 64.10210 29.50408 20316 ft 488 kts 193°
2026-04-20 14:19 64.06908 29.48582 20314 ft 487 kts 193°
2026-04-20 14:20 64.03615 29.46762 20317 ft 487 kts 193°
2026-04-20 14:20 64.00323 29.44942 20320 ft 484 kts 193°
2026-04-20 14:20 63.97076 29.43151 20314 ft 477 kts 193°
2026-04-20 14:20 63.93870 29.41377 20312 ft 473 kts 193°
2026-04-20 14:21 63.90687 29.39614 20312 ft 469 kts 193°
2026-04-20 14:21 63.87521 29.37852 20309 ft 467 kts 193°
2026-04-20 14:21 63.84420 29.36100 20308 ft 465 kts 193°
2026-04-20 14:21 63.81287 29.34320 20305 ft 464 kts 193°
2026-04-20 14:22 63.78157 29.32539 20306 ft 464 kts 193°
2026-04-20 14:22 63.75022 29.30759 20305 ft 465 kts 193°
2026-04-20 14:22 63.71877 29.28977 20303 ft 465 kts 193°
2026-04-20 14:22 63.68743 29.27206 20303 ft 465 kts 193°
2026-04-20 14:23 63.65608 29.25436 20303 ft 465 kts 193°
2026-04-20 14:23 63.62468 29.23673 20302 ft 465 kts 193°
2026-04-20 14:23 63.59312 29.22050 20287 ft 465 kts 188°
2026-04-20 14:23 63.56141 29.21844 20282 ft 461 kts 173°
2026-04-20 14:24 63.53052 29.23422 20283 ft 454 kts 157°
2026-04-20 14:24 63.50256 29.26613 20288 ft 448 kts 144°
2026-04-20 14:24 63.47752 29.30682 20303 ft 444 kts 137°
2026-04-20 14:24 63.45372 29.35101 20300 ft 444 kts 136°
2026-04-20 14:25 63.42798 29.39000 20301 ft 449 kts 145°
2026-04-20 14:25 63.40036 29.42291 20299 ft 449 kts 149°
2026-04-20 14:25 63.37353 29.45143 20301 ft 405 kts 151°
2026-04-20 14:25 63.34967 29.47506 20295 ft 339 kts 152°
2026-04-20 14:26 63.33000 29.49322 20285 ft 285 kts 152°
2026-04-20 14:26 63.31286 29.50806 20292 ft 238 kts 152°
2026-04-20 14:26 63.29825 29.51992 20287 ft 217 kts 152°
2026-04-20 14:26 63.28405 29.53124 20289 ft 215 kts 152°
2026-04-20 14:27 63.26886 29.54373 20295 ft 259 kts 152°
2026-04-20 14:27 63.25028 29.56015 20316 ft 316 kts 153°
2026-04-20 14:27 63.22750 29.57619 20314 ft 374 kts 165°
2026-04-20 14:27 63.19965 29.57842 20314 ft 428 kts 183°
2026-04-20 14:28 63.16925 29.56223 20316 ft 471 kts 199°
2026-04-20 14:28 63.13983 29.52831 20309 ft 483 kts 213°
2026-04-20 14:28 63.11476 29.48025 20300 ft 486 kts 228°
2026-04-20 14:28 63.09514 29.41980 20296 ft 486 kts 242°
2026-04-20 14:29 63.08248 29.35109 20289 ft 483 kts 257°
2026-04-20 14:29 63.07757 29.27852 20293 ft 474 kts 271°
2026-04-20 14:29 63.08044 29.20709 20296 ft 465 kts 284°
2026-04-20 14:29 63.08888 29.13875 20304 ft 458 kts 293°
2026-04-20 14:30 63.10268 29.07648 20269 ft 448 kts 307°
2026-04-20 14:30 63.12263 29.02495 20283 ft 438 kts 321°
2026-04-20 14:30 63.14697 28.98557 20300 ft 431 kts 332°
2026-04-20 14:30 63.17310 28.95352 20305 ft 429 kts 336°
2026-04-20 14:31 63.19992 28.92476 20309 ft 428 kts 339°
2026-04-20 14:31 63.22660 28.89764 20311 ft 427 kts 339°
2026-04-20 14:31 63.25382 28.87176 20321 ft 426 kts 341°
2026-04-20 14:31 63.28108 28.84596 20317 ft 425 kts 341°
2026-04-20 14:32 63.30825 28.81987 20321 ft 426 kts 340°
2026-04-20 14:32 63.33538 28.79327 20322 ft 426 kts 340°
2026-04-20 14:32 63.36251 28.76673 20319 ft 426 kts 340°
2026-04-20 14:32 63.38946 28.74055 20320 ft 425 kts 340°
2026-04-20 14:33 63.41680 28.71408 20320 ft 425 kts 340°
2026-04-20 14:33 63.44391 28.68787 20303 ft 425 kts 340°
2026-04-20 14:33 63.47077 28.66202 20311 ft 425 kts 340°
2026-04-20 14:33 63.49797 28.63600 20311 ft 425 kts 340°
2026-04-20 14:34 63.52517 28.61001 20308 ft 425 kts 340°
2026-04-20 14:34 63.55233 28.58405 20309 ft 424 kts 340°
2026-04-20 14:34 63.57946 28.55812 20308 ft 424 kts 340°
2026-04-20 14:34 63.60663 28.53216 20310 ft 424 kts 340°
2026-04-20 14:35 63.63382 28.50618 20315 ft 424 kts 340°
2026-04-20 14:35 63.66102 28.48016 20315 ft 424 kts 340°
2026-04-20 14:35 63.68814 28.45420 20315 ft 424 kts 340°
2026-04-20 14:35 63.71547 28.42917 20295 ft 423 kts 343°
2026-04-20 14:36 63.74421 28.41730 20289 ft 418 kts 358°
2026-04-20 14:36 63.77259 28.42315 20298 ft 415 kts 12°
2026-04-20 14:36 63.79962 28.44569 20293 ft 415 kts 26°
2026-04-20 14:36 63.82293 28.48422 20292 ft 417 kts 41°
2026-04-20 14:37 63.84096 28.53582 20288 ft 421 kts 56°
2026-04-20 14:37 63.85246 28.59723 20280 ft 427 kts 70°
2026-04-20 14:37 63.85659 28.66420 20279 ft 434 kts 84°
2026-04-20 14:37 63.85379 28.73259 20296 ft 439 kts 95°
2026-04-20 14:38 63.84730 28.80051 20305 ft 442 kts 100°
2026-04-20 14:38 63.83750 28.86672 20285 ft 448 kts 110°
2026-04-20 14:38 63.82074 28.92684 20281 ft 456 kts 124°
2026-04-20 14:38 63.79757 28.97663 20280 ft 464 kts 139°
2026-04-20 14:39 63.77035 29.01625 20303 ft 465 kts 144°
2026-04-20 14:39 63.74305 29.05560 20306 ft 465 kts 144°
2026-04-20 14:39 63.71596 29.09535 20323 ft 466 kts 143°
2026-04-20 14:39 63.68916 29.13484 20318 ft 466 kts 143°
2026-04-20 14:40 63.66203 29.17483 20316 ft 466 kts 143°
2026-04-20 14:40 63.63491 29.21478 20318 ft 466 kts 143°
2026-04-20 14:40 63.60778 29.25474 20316 ft 466 kts 143°
2026-04-20 14:40 63.58067 29.29464 20317 ft 466 kts 143°
2026-04-20 14:41 63.55355 29.33450 20312 ft 465 kts 143°
2026-04-20 14:41 63.52644 29.37408 20314 ft 465 kts 143°
2026-04-20 14:41 63.49934 29.41352 20314 ft 465 kts 143°
2026-04-20 14:41 63.47317 29.45568 20303 ft 462 kts 138°
2026-04-20 14:42 63.44851 29.50149 20301 ft 460 kts 135°
2026-04-20 14:42 63.42463 29.54889 20324 ft 458 kts 133°
2026-04-20 14:42 63.40279 29.60030 20302 ft 455 kts 127°
2026-04-20 14:42 63.38268 29.65455 20300 ft 453 kts 124°
2026-04-20 14:43 63.36352 29.70913 20298 ft 453 kts 123°
2026-04-20 14:43 63.34440 29.76486 20298 ft 452 kts 122°
2026-04-20 14:43 63.32548 29.82058 20297 ft 452 kts 122°
2026-04-20 14:43 63.30657 29.87643 20298 ft 452 kts 122°
2026-04-20 14:44 63.28716 29.93167 20275 ft 455 kts 127°
2026-04-20 14:44 63.26298 29.97785 20270 ft 464 kts 141°
2026-04-20 14:44 63.23398 30.00988 20268 ft 471 kts 156°
2026-04-20 14:44 63.20183 30.02568 20269 ft 477 kts 171°
2026-04-20 14:45 63.16901 30.02412 20268 ft 481 kts 185°
2026-04-20 14:45 63.13667 30.00542 20271 ft 482 kts 200°
2026-04-20 14:45 63.10713 29.97037 20270 ft 484 kts 214°
2026-04-20 14:45 63.08224 29.92093 20270 ft 481 kts 229°
2026-04-20 14:46 63.06341 29.86038 20274 ft 478 kts 244°
2026-04-20 14:46 63.05081 29.79309 20295 ft 474 kts 253°
2026-04-20 14:46 63.04109 29.72559 19317 ft 447 kts 256°
2026-04-20 14:46 63.03348 29.65862 16930 ft 449 kts 263°
2026-04-20 14:47 63.03237 29.59163 15190 ft 428 kts 275°
2026-04-20 14:47 63.03312 29.52692 13361 ft 417 kts 273°
2026-04-20 14:47 63.03331 29.46468 11607 ft 406 kts 272°
2026-04-20 14:48 63.03312 29.35005 10806 ft 333 kts 272°
2026-04-20 14:48 63.03286 29.30188 10799 ft 298 kts 272°
2026-04-20 14:48 63.03253 29.25773 10402 ft 285 kts 272°
2026-04-20 14:48 63.03221 29.21568 10299 ft 263 kts 272°
2026-04-20 14:49 63.03187 29.17610 10296 ft 250 kts 272°
2026-04-20 14:49 63.02951 29.13934 10287 ft 244 kts 252°
2026-04-20 14:49 63.02210 29.10564 10296 ft 242 kts 243°
2026-04-20 14:49 63.01389 29.07344 10298 ft 240 kts 243°
2026-04-20 14:50 63.00640 29.04105 10202 ft 243 kts 247°
2026-04-20 14:50 62.99948 29.00695 10062 ft 246 kts 248°
2026-04-20 14:50 62.99241 28.97264 9994 ft 245 kts 247°
2026-04-20 14:50 62.98518 28.93894 9988 ft 242 kts 246°
2026-04-20 14:51 62.97805 28.90570 9980 ft 239 kts 247°
2026-04-20 14:51 62.97096 28.87233 9983 ft 244 kts 247°
2026-04-20 14:51 62.96371 28.83827 9988 ft 247 kts 246°
2026-04-20 14:51 62.95647 28.80439 9990 ft 250 kts 246°
2026-04-20 14:52 62.94902 28.76959 9993 ft 253 kts 246°
2026-04-20 14:52 62.94149 28.73456 9993 ft 255 kts 246°
2026-04-20 14:52 62.93390 28.69925 9994 ft 257 kts 246°
2026-04-20 14:52 62.92626 28.66368 9996 ft 258 kts 246°
2026-04-20 14:53 62.91857 28.62799 10002 ft 259 kts 246°
2026-04-20 14:53 62.91080 28.59208 10001 ft 262 kts 246°
2026-04-20 14:53 62.90293 28.55569 10000 ft 266 kts 246°
2026-04-20 14:53 62.89518 28.51997 10004 ft 249 kts 246°
2026-04-20 14:54 62.88804 28.48715 10004 ft 232 kts 246°
2026-04-20 14:54 62.88071 28.45323 10009 ft 246 kts 246°
2026-04-20 14:54 62.87360 28.42074 10005 ft 227 kts 246°
2026-04-20 14:54 62.86690 28.39001 9609 ft 228 kts 246°
2026-04-20 14:55 62.85991 28.35779 8945 ft 239 kts 246°
2026-04-20 14:55 62.85261 28.32438 8303 ft 247 kts 246°
2026-04-20 14:55 62.84507 28.29002 7675 ft 252 kts 245°
2026-04-20 14:55 62.83743 28.25525 7071 ft 255 kts 245°
2026-04-20 14:56 62.82971 28.22012 6447 ft 257 kts 245°
2026-04-20 14:56 62.82196 28.18497 5814 ft 257 kts 246°
2026-04-20 14:56 62.81421 28.14982 5181 ft 256 kts 246°
2026-04-20 14:56 62.80672 28.11450 4524 ft 255 kts 251°
2026-04-20 14:57 62.80342 28.07746 3871 ft 251 kts 270°
2026-04-20 14:57 62.80508 28.04045 3219 ft 244 kts 286°
2026-04-20 14:57 62.81133 28.00633 2561 ft 241 kts 301°
2026-04-20 14:57 62.82154 27.97765 1900 ft 238 kts 317°
2026-04-20 14:58 62.83418 27.95753 1887 ft 210 kts 332°
2026-04-20 14:58 62.84709 27.94507 1924 ft 200 kts 340°
2026-04-20 14:58 62.86018 27.93361 1926 ft 205 kts 339°
2026-04-20 14:58 62.87357 27.92193 1932 ft 208 kts 339°
2026-04-20 14:59 62.88713 27.91008 1935 ft 210 kts 339°
2026-04-20 14:59 62.90073 27.89812 1936 ft 209 kts 339°
2026-04-20 14:59 62.91352 27.88676 1933 ft 186 kts 339°
2026-04-20 14:59 62.92370 27.87725 1637 ft 141 kts 333°
2026-04-20 15:00 62.93291 27.86655 1186 ft 164 kts 334°
2026-04-20 15:00 62.94316 27.85586 997 ft 146 kts 337°
2026-04-20 15:00 62.95255 27.84755 695 ft 164 kts 339°
2026-04-20 15:00 62.96385 27.83755 693 ft 176 kts 338°
2026-04-20 15:01 62.97467 27.82750 627 ft 167 kts 337°
2026-04-20 15:01 62.98469 27.81844 535 ft 145 kts 336°
2026-04-20 15:01 62.99382 27.80998 364 ft 135 kts 340°
2026-04-20 15:01 63.00087 27.80361 307 ft 68 kts 340°
2026-04-20 15:02 63.00498 27.79978 306 ft 59 kts 336°
2026-04-20 15:02 63.00698 27.79693 315 ft 25 kts 268°
2026-04-20 15:02 63.00598 27.79274 314 ft 36 kts 223°
2026-04-20 15:02 63.00446 27.79026 315 ft 13 kts 216°
2026-04-20 15:03 63.00419 27.78989 314 ft 0 kts 202°